Skip Page Navigation
NASA JPL Caltech
NASA Logo - Jet Propulsion Laboratory + View the NASA Portal
+ Center for Near-Earth Object Studies
JPL Home Earth Solar System Stars & Galaxies Technology
JPL Solar System Dynamics
BODIES ORBITS EPHEMERIDES TOOLS PHYSICAL DATA DISCOVERY FAQ SITE MAP
IMPORTANT: The SSD Announcement email list is now available. Major changes are coming in the near future, including possible hostname and/or URL changes. To be notified of such changes, subscribe to this email list.

Please visit this page for more details.


JPL Small-Body Database Browser
Search: [ help ]  
173012 (2006 PG17)
Classification: Outer Main-belt Asteroid          SPK-ID: 2173012
Ephemeris | Orbit Diagram | Orbital Elements | Mission Design | Physical Parameters | Discovery Circumstances | Close-Approach Data ]

[ show orbit diagram ]
Orbital Elements at Epoch 2458600.5 (2019-Apr-27.0) TDB
Reference: JPL 14 (heliocentric ecliptic J2000)
 Element Value Uncertainty (1-sigma)   Units 
e .250306061717682 6.0877e-08  
a 3.969075560672509 4.5821e-08 au
q 2.975591888420673 2.4169e-07 au
i 5.087264461463442 6.9033e-06 deg
node 151.9655936679769 5.6704e-05 deg
peri 213.6360164712594 5.7916e-05 deg
M 204.6613751733048 1.1055e-05 deg
tp 2459846.762227760006
(2022-Sep-24.26222776)
0.00010309 TDB
period 2888.234671152439
7.91
5.0015e-05
1.369e-07
d
yr
n .1246436114058404 2.1584e-09 deg/d
Q 4.962559232924345 5.729e-08 au
  Orbit Determination Parameters
   # obs. used (total)      454  
   data-arc span      10005 days (27.39 yr)  
   first obs. used      1991-12-03  
   last obs. used      2019-04-25  
   planetary ephem.      DE431  
   SB-pert. ephem.      SB431-N16  
   condition code      0  
   norm. resid. RMS      .60619  
   source      ORB  
   producer      Otto Matic  
   solution date      2019-Jul-14 07:32:34  

Additional Information
 Earth MOID = 1.97482 au 
 Jupiter MOID = .507685 au 
 T_jup = 2.995 
[ show covariance matrix ]

Ephemeris | Orbit Diagram | Orbital Elements | Mission Design | Physical Parameters | Discovery Circumstances | Close-Approach Data ]

Physical Parameter Table
Parameter Symbol Value Units Sigma Reference Notes
absolute magnitude H 14.2   n/a MPO436859  

173012 (2006 PG17)          Discovered 2006-Aug-15 by NEAT at Palomar
Reference: 20071224/Numbers.arcLast Updated: 2007-12-22

[ show close-approach data ]
Ephemeris | Orbit Diagram | Orbital Elements | Mission Design | Physical Parameters | Discovery Circumstances | Close-Approach Data ]
ABOUT SSD CREDITS/AWARDS PRIVACY/COPYRIGHT GLOSSARY LINKS
FirstGov 2019-Dec-09 00:06 UT
(server date/time)  
NASA Home Page
Site Manager:   Ryan S. Park
Webmaster  Alan B. Chamberlin